ROMMA est une association bénévole à but non lucratif. Votre soutien est indispensable : ADHERER à ROMMA ou FAIRE un DON

St-Etienne-du-Bois - (01, Ain)

La Bresse (243 m)   Longitude: 5° 16' 47'' E   Latitude: 46° 17' 46'' N Station partenaire n°17
 

Détail journalier du     <<     >>

Température Precipitation Humidité Pression Vent Dir Rafale Dir. rafale Ensol.
Heure (°C) (mm) (%) (hPa) (km/h) (km/h) (min)
01:00 6.20.296100200---0
02:00 5.8096100200---0
03:00 5.2096100200---0
04:00 4.20.296100100---0
05:00 3.7096100100---0
06:00 2.9096100100---0
07:00 2.5096100203SSO0
08:00 2.0096100203SSO0
09:00 4.8098100203SSO50
10:00 6.909510023SSO11SSO60
11:00 9.108210024SSO11SO60
12:00 10.507410015SSO16SSO60
13:00 11.306710015SO11SO55
14:00 10.507310014OSO15SO40
15:00 11.606610011SSO6SSO45
16:00 10.507410021NNO5N40
17:00 7.9085100305NNO10
18:00 5.6091100400---0
19:00 5.1093100403NNO0
20:00 5.1093100500---0
21:00 5.6094100600---0
22:00 5.6094100600---0
23:00 5.6094100600---0
minuit 5.6095100700---0

Graphique du 08-11-2019

 

Serveur OMMA